• In Hungary
  • List of Countries
  • For 7 days
  • Water Temperature
  • Satellite Maps
  • Weather Map
  • News
  • Weather Widgets
  • user-avatar
    Login

    Hourly Weather Ath

    Today, 24 September, Monday

    Time Temperature Precipitation Wind Pressure Humidity
    00:00 +8°C° 0 mm 2 mps 768 mmHg 87%
    01:00 +8°C° 0 mm 2 mps 768 mmHg 87%
    02:00 +8°C° 0 mm 2 mps 769 mmHg 87%
    03:00 +8°C° 0 mm 2 mps 770 mmHg 86%
    04:00 +8°C° 0 mm 2 mps 770 mmHg 87%
    05:00 +7°C° 0 mm 2 mps 770 mmHg 87%
    06:00 +7°C° 0 mm 2 mps 771 mmHg 87%
    07:00 +9°C° 0 mm 2 mps 771 mmHg 80%
    08:00 +11°C° 0 mm 3 mps 772 mmHg 74%
    09:00 +13°C° 0 mm 3 mps 772 mmHg 67%
    10:00 +14°C° 0 mm 4 mps 773 mmHg 63%
    11:00 +15°C° 0 mm 4 mps 773 mmHg 59%
    12:00 +15°C° 0 mm 4 mps 773 mmHg 54%
    13:00 +15°C° 0 mm 4 mps 773 mmHg 54%
    14:00 +15°C° 0 mm 4 mps 773 mmHg 55%
    15:00 +15°C° 0 mm 4 mps 772 mmHg 55%
    16:00 +14°C° 0 mm 4 mps 773 mmHg 61%
    17:00 +12°C° 0 mm 3 mps 773 mmHg 67%
    18:00 +10°C° 0 mm 3 mps 773 mmHg 73%
    19:00 +10°C° 0 mm 2 mps 773 mmHg 75%
    20:00 +9°C° 0 mm 2 mps 774 mmHg 77%
    21:00 +8°C° 0 mm 2 mps 774 mmHg 78%
    22:00 +8°C° 0 mm 2 mps 774 mmHg 80%
    23:00 +9°C° 0 mm 1 mps 774 mmHg 81%

    Tomorrow, 25 September, Tuesday

    Time Temperature Precipitation Wind Pressure Humidity
    00:00 +8°C° 0 mm 1 mps 774 mmHg 82%
    01:00 +8°C° 0 mm 1 mps 774 mmHg 83%
    02:00 +8°C° 0 mm 1 mps 774 mmHg 84%
    03:00 +7°C° 0 mm 1 mps 774 mmHg 85%
    04:00 +7°C° 0 mm 1 mps 774 mmHg 85%
    05:00 +7°C° 0 mm 1 mps 774 mmHg 86%
    06:00 +7°C° 0 mm 1 mps 775 mmHg 86%
    07:00 +9°C° 0 mm 1 mps 775 mmHg 79%
    08:00 +11°C° 0 mm 1 mps 775 mmHg 71%
    09:00 +13°C° 0 mm 2 mps 775 mmHg 64%
    10:00 +14°C° 0 mm 2 mps 775 mmHg 59%
    11:00 +15°C° 0 mm 2 mps 775 mmHg 54%
    12:00 +16°C° 0 mm 2 mps 774 mmHg 49%
    13:00 +16°C° 0 mm 2 mps 774 mmHg 49%
    14:00 +17°C° 0 mm 2 mps 773 mmHg 48%
    15:00 +17°C° 0 mm 2 mps 773 mmHg 47%
    16:00 +15°C° 0 mm 2 mps 773 mmHg 52%
    17:00 +14°C° 0 mm 2 mps 773 mmHg 57%
    18:00 +12°C° 0 mm 2 mps 773 mmHg 62%
    19:00 +10°C° 0 mm 2 mps 773 mmHg 64%
    20:00 +10°C° 0 mm 2 mps 773 mmHg 66%
    21:00 +9°C° 0 mm 2 mps 773 mmHg 68%
    22:00 +9°C° 0 mm 2 mps 773 mmHg 69%
    23:00 +8°C° 0 mm 2 mps 773 mmHg 70%

    Day after tomorrow, 26 September, Wednesday

    Time Temperature Precipitation Wind Pressure Humidity
    00:00 +8°C° 0 mm 2 mps 773 mmHg 72%
    01:00 +8°C° 0 mm 2 mps 773 mmHg 71%
    02:00 +8°C° 0 mm 2 mps 772 mmHg 71%
    03:00 +7°C° 0 mm 2 mps 772 mmHg 70%
    04:00 +7°C° 0 mm 2 mps 772 mmHg 70%
    05:00 +7°C° 0 mm 2 mps 772 mmHg 69%
    06:00 +7°C° 0 mm 2 mps 772 mmHg 68%
    07:00 +10°C° 0 mm 1 mps 772 mmHg 62%
    08:00 +12°C° 0 mm 1 mps 772 mmHg 56%
    09:00 +14°C° 0 mm 1 mps 772 mmHg 51%
    10:00 +16°C° 0 mm 1 mps 772 mmHg 47%
    11:00 +18°C° 0 mm 1 mps 771 mmHg 43%
    12:00 +20°C° 0 mm 1 mps 771 mmHg 39%
    13:00 +20°C° 0 mm 1 mps 771 mmHg 39%
    14:00 +20°C° 0 mm 1 mps 770 mmHg 39%
    15:00 +21°C° 0 mm 1 mps 770 mmHg 38%
    16:00 +19°C° 0 mm 1 mps 770 mmHg 43%
    17:00 +16°C° 0 mm 1 mps 770 mmHg 48%
    18:00 +13°C° 0 mm 0 mps 770 mmHg 53%
    19:00 +14°C° 0 mm 1 mps 770 mmHg 54%
    20:00 +13°C° 0 mm 1 mps 770 mmHg 56%
    21:00 +13°C° 0 mm 1 mps 770 mmHg 57%
    22:00 +12°C° 0 mm 1 mps 770 mmHg 58%
    23:00 +12°C° 0 mm 1 mps 770 mmHg 59%

    27 September, Thursday

    Time Temperature Precipitation Wind Pressure Humidity
    00:00 +12°C° 0 mm 1 mps 770 mmHg 61%
    01:00 +11°C° 0 mm 1 mps 769 mmHg 62%
    02:00 +11°C° 0 mm 1 mps 769 mmHg 62%
    03:00 +11°C° 0 mm 1 mps 769 mmHg 63%
    04:00 +10°C° 0 mm 1 mps 769 mmHg 64%
    05:00 +10°C° 0 mm 1 mps 768 mmHg 65%
    06:00 +9°C° 0 mm 2 mps 768 mmHg 66%
    07:00 +12°C° 0 mm 2 mps 768 mmHg 61%
    08:00 +14°C° 0 mm 2 mps 768 mmHg 57%
    09:00 +16°C° 0 mm 2 mps 768 mmHg 53%
    10:00 +18°C° 0 mm 2 mps 767 mmHg 49%
    11:00 +19°C° 0 mm 2 mps 767 mmHg 45%
    12:00 +21°C° 0 mm 3 mps 767 mmHg 41%
    13:00 +21°C° 0 mm 2 mps 766 mmHg 42%
    14:00 +21°C° 0 mm 2 mps 766 mmHg 42%
    15:00 +21°C° 0 mm 2 mps 765 mmHg 42%
    16:00 +19°C° 0 mm 2 mps 765 mmHg 47%
    17:00 +18°C° 0 mm 1 mps 765 mmHg 52%
    18:00 +15°C° 0 mm 1 mps 765 mmHg 58%
    19:00 +15°C° 0 mm 1 mps 765 mmHg 60%
    20:00 +14°C° 0 mm 1 mps 765 mmHg 62%
    21:00 +12°C° 0 mm 0 mps 765 mmHg 64%
    22:00 +12°C° 0 mm 0 mps 765 mmHg 65%
    23:00 +11°C° 0 mm 0 mps 765 mmHg 67%

    28 September, Friday

    Time Temperature Precipitation Wind Pressure Humidity
    00:00 +11°C° 0 mm 0 mps 764 mmHg 68%
    01:00 +11°C° 0 mm 0 mps 764 mmHg 69%
    02:00 +10°C° 0 mm 0 mps 764 mmHg 70%
    03:00 +10°C° 0 mm 0 mps 764 mmHg 71%
    04:00 +10°C° 0 mm 0 mps 764 mmHg 72%
    05:00 +11°C° 0 mm 1 mps 764 mmHg 73%
    06:00 +10°C° 0 mm 1 mps 764 mmHg 74%
    07:00 +12°C° 0 mm 2 mps 764 mmHg 69%
    08:00 +14°C° 0 mm 2 mps 764 mmHg 65%
    09:00 +16°C° 0 mm 2 mps 764 mmHg 60%
    10:00 +17°C° 0 mm 3 mps 764 mmHg 59%
    11:00 +19°C° 0 mm 4 mps 764 mmHg 58%
    12:00 +20°C° 0 mm 4 mps 764 mmHg 56%
    13:00 +19°C° 0 mm 5 mps 764 mmHg 59%
    14:00 +19°C° 0 mm 6 mps 764 mmHg 62%
    15:00 +17°C° 0 mm 6 mps 764 mmHg 65%
    16:00 +16°C° 0 mm 6 mps 765 mmHg 69%
    17:00 +14°C° 0 mm 5 mps 765 mmHg 73%
    18:00 +13°C° 0 mm 5 mps 765 mmHg 77%
    19:00 +12°C° 0 mm 5 mps 766 mmHg 76%
    20:00 +12°C° 0 mm 5 mps 766 mmHg 76%
    21:00 +10°C° 0 mm 5 mps 767 mmHg 75%
    22:00 +9°C° 0 mm 5 mps 767 mmHg 75%
    23:00 +9°C° 0 mm 5 mps 767 mmHg 74%

    29 September, Saturday

    Time Temperature Precipitation Wind Pressure Humidity
    00:00 +9°C° 0 mm 5 mps 767 mmHg 74%
    01:00 +8°C° 0 mm 5 mps 767 mmHg 75%
    02:00 +8°C° 0 mm 4 mps 767 mmHg 77%
    03:00 +7°C° 0 mm 4 mps 767 mmHg 78%
    04:00 +7°C° 0 mm 4 mps 767 mmHg 80%
    05:00 +7°C° 0 mm 4 mps 767 mmHg 82%
    06:00 +6°C° 0 mm 4 mps 767 mmHg 83%
    07:00 +8°C° 0 mm 4 mps 766 mmHg 77%
    08:00 +9°C° 0 mm 5 mps 766 mmHg 71%
    09:00 +12°C° 0 mm 5 mps 766 mmHg 65%
    10:00 +13°C° 0 mm 5 mps 766 mmHg 61%
    11:00 +15°C° 0 mm 5 mps 765 mmHg 57%
    12:00 +16°C° 0 mm 5 mps 765 mmHg 54%
    13:00 +17°C° 0 mm 5 mps 764 mmHg 53%
    14:00 +17°C° 0 mm 5 mps 764 mmHg 53%
    15:00 +17°C° 0 mm 5 mps 763 mmHg 52%
    16:00 +17°C° 0 mm 4 mps 763 mmHg 56%
    17:00 +14°C° 0 mm 4 mps 763 mmHg 60%
    18:00 +13°C° 0 mm 3 mps 763 mmHg 65%
    19:00 +12°C° 0 mm 3 mps 762 mmHg 65%
    20:00 +11°C° 0 mm 3 mps 762 mmHg 66%
    21:00 +10°C° 0 mm 3 mps 762 mmHg 67%
    22:00 +10°C° 0 mm 3 mps 762 mmHg 67%
    23:00 +10°C° 0 mm 2 mps 761 mmHg 68%
    Show more